VINASAT-1

Last updated on Fri Jul 10 2026 00:03:02 GMT+0000 (Coordinated Universal Time)

1 32767U 08018A 26190.30986634 -.00000315 00000+0 00000+0 0 9997 2 32767 0.0427 281.2278 0001440 206.7221 42.7949 1.00270820 66815
UTC large
Height (km)
Speed (km/s)
/
Latitude / Longitude
Inclination (degrees)
Orbital Period (minutes)
Azimuth
Elevation
Range (km)
Doppler Factor

Next 0 passes for location: London (51.5072 / 0.1276)

No passes found over London.
VINASAT-1